Create Custom Reports and Graphics: Custom Report

Siberia 8700'

Squaw Valley

8/12/20 2:45 PM (-07:00)
Updated Every 15 Minutes
Temp 61.7 °F   2.8
RH 29 %   6
Wet Bulb 45.2 °F   3.8
Dew Pt 29.3 °F   7.4
Wind Dir SSE | 164 °
Wind Spd 0.0 mph   0.0
Wind Gust 0.1 mph   0.0
WindChill 62.3 °F   1.6
Daily Min Temp 50.7 °F   5.7
Daily Max Temp 63.6 °F   3.3

Last 24 Hours

Squaw-Siberia 8700'

Hourly Data | America/Los_Angeles
as of 8/12/20 2:46 PM PDT
Date & Time Temp (°F) RH (%) Dew Pt (°F) Wet Bulb (°F) Wind Dir (°) Wind Spd (mph) Wind Gust (mph) WindChill (°F) Daily Min Temp (°F) Daily Max Temp (°F)
8/12/20 - 1400 61.8 28 28.4 45.0 SSE | 164 0.0 0.1 61.2 50.7 63.3
8/12/20 - 1300 60.5 29 28.1 44.3 SSE | 164 0.0 0.1 59.4 50.7 60.8
8/12/20 - 1200 58.8 26 23.7 42.2 SSE | 165 0.0 0.1 58.0 50.7 59.7
8/12/20 - 1100 56.4 34 28.2 42.5 SSE | 165 0.0 0.1 56.1 50.7 57.7
8/12/20 - 1000 55.8 33 27.2 41.9 SSE | 165 0.0 0.1 54.8 50.7 56.2
8/12/20 - 0900 53.7 33 25.4 40.4 SSE | 165 0.0 0.1 53.1 50.7 53.8
8/12/20 - 0800 53.2 30 23.0 39.4 SSE | 165 0.0 0.1 52.6 50.7 53.7
8/12/20 - 0700 52.0 34 24.4 39.2 SSE | 165 0.0 0.1 51.9 50.7 53.5
8/12/20 - 0600 51.2 34 24.1 38.8 SSE | 164 0.0 0.1 51.6 50.7 53.5
8/12/20 - 0500 51.4 38 26.8 39.7 SSE | 164 0.0 0.1 51.9 51.1 53.5
8/12/20 - 0400 52.3 36 26.3 40.0 SSE | 164 0.0 0.1 52.3 51.7 53.5
8/12/20 - 0300 52.3 38 27.4 40.4 SSE | 164 0.0 0.1 52.4 51.8 53.5
8/12/20 - 0200 52.4 45 31.9 42.1 SSE | 164 0.0 0.1 52.5 52.1 53.5
8/12/20 - 0100 52.4 43 30.8 41.7 SSE | 163 0.0 0.1 52.9 52.3 53.5
8/12/20 - 0000 53.1 44 31.7 42.3 SSE | 164 0.0 0.1 52.9 52.6 66.9
8/11/20 - 2300 52.8 56 37.3 44.5 SSE | 163 0.0 0.1 53.1 52.7 66.9
8/11/20 - 2200 53.5 52 36.3 44.4 SSE | 163 0.0 0.1 53.5 53.1 66.9
8/11/20 - 2100 54.0 58 39.7 46.1 SSE | 164 0.0 0.1 55.0 53.9 66.9
8/11/20 - 2000 56.8 48 37.2 46.1 SSE | 164 0.0 0.1 59.1 56.3 66.9
8/11/20 - 1900 60.1 37 33.9 46.2 SSE | 164 0.0 0.1 61.1 56.3 66.9
8/11/20 - 1800 62.3 36 35.1 47.5 SSE | 164 0.0 0.1 63.1 56.3 66.9
8/11/20 - 1700 63.6 35 35.4 48.2 SSE | 164 0.0 0.1 64.1 56.3 66.9
8/11/20 - 1600 65.5 35 37.4 49.7 SSE | 164 0.0 0.1 64.5 56.3 66.9
8/11/20 - 1500 64.0 35 35.6 48.4 SSE | 164 0.0 0.1 64.0 56.3 66.9
8/11/20 - 1400 65.1 34 36.3 49.1 SSE | 165 0.0 0.1 64.8 56.3 66.9
Max 65.5 58 39.7 49.7 - 0.0 0.1 64.8 56.3 66.9
Avg 56.6 38 30.9 43.6 - 0.0 0.1 56.6 - -
Min 51.2 26 23.0 38.8 - 0.0 0.1 51.6 50.7 53.5

Last 30 Days

Squaw-Siberia 8700'

Daily Data | America/Los_Angeles
as of 8/12/20 2:46 PM PDT
Date Daily Max Temp (°F) Max Temp Time Daily Min Temp (°F) Min Temp Time Wind Spd (mph) Daily Max Wind (mph) Max Wind Time Max Wind Dir (°) Wet Bulb (°F) WetB Hrs <28F (hrs)
8/11/20 66.9 1337 52.6 2330 0.0 0.1 2014 SSE | 162 47.1 0.0
8/10/20 75.8 1320 54.1 1624 0.0 0.1 1349 SSE | 161 48.5 0.0
8/9/20 75.8 1403 56.5 0557 0.0 0.1 1724 SSE | 163 50.5 0.0
8/8/20 72.9 1410 52.5 0545 0.0 0.1 1743 SSE | 162 50.5 0.0
8/7/20 68.3 1359 47.2 0608 0.0 0.1 0121 SSE | 159 47.2 0.0
8/6/20 63.2 1504 47.1 0601 0.0 0.1 1323 SSE | 160 42.6 0.0
8/5/20 64.3 1348 48.6 2300 0.0 0.1 0043 SSE | 160 43.4 0.0
8/4/20 69.0 1625 52.8 2359 0.0 0.1 1930 SSE | 159 45.4 0.0
8/3/20 68.0 1400 54.0 0043 0.0 0.1 1323 SSE | 168 42.2 0.0
8/2/20 68.3 1554 53.7 2237 0.0 0.1 1418 SSE | 162 42.1 0.0
8/1/20 72.3 1631 55.0 0308 0.0 0.1 1731 SSE | 162 43.7 0.0
7/31/20 72.2 1543 57.0 2320 0.0 0.1 1914 SSE | 158 43.9 0.0
7/30/20 69.9 1451 54.9 0606 0.0 0.1 2018 SSE | 166 47.0 0.0
7/29/20 70.5 1527 54.5 0551 0.0 0.1 1813 SSE | 163 45.9 0.0
7/28/20 70.7 1548 55.3 2203 0.0 0.1 1739 SSE | 158 49.5 0.0
7/27/20 69.6 1208 54.0 0110 0.0 0.1 1904 SSE | 161 48.5 0.0
7/26/20 73.0 1402 54.9 2351 0.0 0.1 0312 SSE | 158 47.4 0.0
7/25/20 69.0 1219 54.1 0312 0.0 0.1 2000 SSE | 158 48.9 0.0
7/24/20 68.2 1435 50.6 0338 0.0 0.1 1957 SSE | 160 47.4 0.0
7/23/20 65.1 1607 48.7 0553 0.0 0.1 2252 SSE | 158 47.7 0.0
7/22/20 66.0 1510 50.3 2159 0.0 0.1 0724 SSE | 161 49.2 0.0
7/21/20 74.4 1349 58.8 2030 0.0 0.1 1112 SSE | 158 50.6 0.0
7/20/20 75.0 1446 59.0 2353 0.0 0.1 2214 SSE | 157 51.5 0.0
7/19/20 75.4 1238 58.3 0500 0.0 0.1 0504 SSE | 161 50.6 0.0
7/18/20 73.2 1547 57.4 0440 0.0 0.1 0909 SSE | 159 49.4 0.0
7/17/20 71.9 1453 57.3 0502 0.0 0.1 1129 SSE | 163 49.6 0.0
7/16/20 77.4 1259 60.6 0518 0.0 0.1 0408 SSE | 157 51.0 0.0
7/15/20 76.6 1608 54.9 0515 0.0 0.1 1832 SSE | 162 50.4 0.0
7/14/20 71.3 1549 53.4 0208 0.0 0.1 0415 SSE | 162 48.5 0.0
7/13/20 67.6 1518 54.4 0526 0.0 0.1 1908 SSE | 159 45.6 0.0
Max 77.4 - 60.6 - 0.0 0.1 - - 51.5 0.0
Avg - - - - 0.0 - - - 47.5 -
Min 63.2 - 47.1 - 0.0 0.1 - - 42.1 0.0
Calm: 0.0%
Calm: 0.0%